[[{"header":{"parameterUnit":"m.s-1","parameterCategory":1,"la1":30.2991,"la2":30.254,"lo1":-89.0895,"lo2":-89.0444,"dy":0.0017,"dx":0.0017,"nx":28,"ny":28,"refTime":"2025-04-26T09:00:00:Z","depth":0,"parameterNumber":2,"parameterNumberName":"U-component_of_WINDS"},"data":[0,0,0,0,0,0,0,0,0,0,0,0,0,0,0,0,0,0,0,0,0,0,0,0,0,0,0,0,0,0,0,0,0,0,0,0,0,0,0,0,0,0,0,0,0,0,0,0,0,0,0,0,0,0,0,0,0,0,0.5426,0.5428,0,0.5593,0.5595,0.5597,0.5592,0.5589,0.5587,0.5585,0.5763,0.577,0.5777,0,0,0,0,0,0,0,0,0,0,0,0,0,0.5105,0.5111,0.5426,0.5428,0.543,0.5593,0.5595,0.5598,0.5592,0.5589,0.5586,0.5584,0.5761,0.5769,0.5777,0,0,0,0,0,0,0,0,0,0,0,0,0,0.5256,0.5113,0.5425,0.5447,0.545,0.5593,0.5596,0.5598,0.5593,0.5589,0.5586,0.5582,0.5758,0.5768,0.5779,0.5913,0,0,0.581,0.5815,0,0,0,0,0,0,0,0,0.5248,0.5268,0.5441,0.5445,0.545,0.5568,0.5548,0.5704,0.5594,0.5539,0.5585,0.5581,0.5702,0.5716,0.5756,0.5921,0.5929,0.5811,0.5818,0.5822,0.5825,0,0,0,0,0,0,0,0.5237,0.5261,0.5492,0.5444,0.5449,0.5449,0.5467,0.5578,0.5638,0.5543,0.5543,0.5563,0.5703,0.5746,0.576,0.5932,0.5811,0.582,0.5827,0.5831,0.6215,0.6219,0,0,0,0,0,0,0.5221,0.5252,0.5487,0.5497,0.5338,0.5458,0.5478,0.5534,0.5637,0.5649,0.5566,0.5562,0.573,0.5748,0.5766,0.593,0.5822,0.5832,0.5838,0.6211,0.6216,0.6221,0,0,0,0,0,0,0.5215,0.5242,0.548,0.5375,0.5405,0.5467,0.553,0.5539,0.5581,0.5654,0.5665,0.5598,0.5728,0.5752,0.5876,0.5936,0.5836,0.5846,0.6207,0.6213,0.6218,0.6259,0,0,0,0,0,0,0.5205,0.524,0.5291,0.5376,0.541,0.5586,0.5534,0.5545,0.5598,0.5595,0.5687,0.5699,0.5727,0.586,0.5886,0.5949,0.5854,0.6202,0.6209,0.6216,0.6253,0.6266,0.6277,0,0,0,0,0,0.5194,0.5297,0.5293,0.5322,0.5475,0.5589,0.5609,0.5638,0.5603,0.5656,0.5702,0.5696,0.5925,0.5873,0.5902,0.5969,0.6198,0.6207,0.6216,0.6247,0.6263,0.6276,0,0,0,0,0,0,0.522,0.5309,0.5305,0.5439,0.5506,0.5588,0.5655,0.5654,0.5734,0.5728,0.5762,0.5783,0.5907,0.595,0.5891,0.6104,0.6057,0.6073,0.6071,0.6087,0.6099,0.6086,0.5863,0,0,0,0,0,0.5241,0.5324,0.5398,0.5509,0.5542,0.5593,0.5644,0.5659,0.5731,0.5761,0.5816,0.5888,0.5976,0.6034,0.6119,0.6258,0.6278,0.6318,0.633,0.634,0.6353,0.643,0.6448,0.625,0.625,0.625,0,0,0.5286,0.5344,0.5396,0.5515,0.5569,0.5657,0.5617,0.5711,0.5777,0.5776,0.5896,0.5939,0.6021,0.6153,0.6215,0.6194,0.6412,0.6351,0.6358,0.6367,0.6441,0.6459,0.6476,0.6256,0.6255,0.6254,0,0,0.5412,0.5464,0.5562,0.5616,0.5697,0.573,0.5753,0.5835,0.5863,0.5983,0.5984,0.6063,0.6214,0.6273,0.6322,0.6468,0.6466,0.6495,0.6559,0.6633,0.6649,0.6663,0.6716,0.6734,0.6508,0.6508,0.6508,0,0.5458,0.5588,0.5613,0.5707,0.576,0.576,0.586,0.5912,0.6018,0.6055,0.6029,0.6218,0.6273,0.6419,0.6454,0.6494,0.6523,0.6486,0.6644,0.6659,0.6672,0.6723,0.6742,0.6511,0.6511,0.6511,0.651,0,0.564,0.573,0.58,0.5899,0.596,0.6057,0.6097,0.6156,0.6166,0.6201,0.6324,0.639,0.6488,0.6524,0.6536,0.6671,0.6656,0.6637,0.6591,0.6694,0.6742,0.6761,0.6516,0.6514,0.6514,0.6513,0,0,0.579,0.59,0.5925,0.597,0.6059,0.613,0.6226,0.632,0.637,0.6442,0.6525,0.6652,0.6634,0.669,0.6709,0.6773,0.6885,0.6747,0.6749,0.677,0.7038,0.7052,0.7074,0.6883,0.6887,0.689,0.7032,0,0.5926,0.6095,0.612,0.627,0.6354,0.6354,0.6438,0.6502,0.6538,0.6615,0.6655,0.6744,0.6714,0.6748,0.6812,0.6858,0.6939,0.6848,0.6962,0.6965,0.6942,0.7099,0.7115,0.7246,0.705,0.7054,0.7056,0,0.6107,0.6182,0.634,0.6416,0.6452,0.6527,0.6614,0.6688,0.6761,0.6782,0.6843,0.6853,0.6955,0.6903,0.7043,0.698,0.7028,0.7058,0.7064,0.7076,0.7018,0.7117,0.7288,0.7308,0.7086,0.7083,0.7081,0,0.6201,0.6341,0.6453,0.6492,0.6583,0.6636,0.6677,0.6746,0.6801,0.6877,0.6913,0.7001,0.705,0.7119,0.7152,0.7111,0.7291,0.7242,0.7312,0.7312,0.7351,0.7349,0.7533,0.7381,0.7381,0.738,0.738,0,0.635,0.6447,0.6496,0.6566,0.6674,0.6701,0.6809,0.6848,0.691,0.6987,0.6994,0.7067,0.7106,0.7186,0.7213,0.7325,0.7347,0.7368,0.7374,0.7368,0.7365,0.7401,0.7393,0.7385,0.7384,0.7383,0.7382,0,0.6474,0.6511,0.6633,0.6709,0.673,0.6807,0.6872,0.694,0.6974,0.7072,0.7097,0.7151,0.7245,0.7284,0.74,0.7418,0.7547,0.7546,0.7522,0.7524,0.7592,0.7585,0.7807,0.7837,0.7664,0.7666,0.7667,0,0.6567,0.6641,0.6724,0.6775,0.6817,0.69,0.6955,0.6985,0.7042,0.7129,0.7187,0.728,0.7356,0.7506,0.7556,0.7645,0.7647,0.7718,0.766,0.7651,0.7648,0.7644,0.7651,0.7729,0.7731,0.7732,0.7733,0,0.673,0.6743,0.6821,0.6904,0.6969,0.7037,0.7103,0.7145,0.7185,0.7249,0.7343,0.7402,0.7519,0.7612,0.7703,0.7746,0.7748,0.7751,0.7772,0.7767,0.7749,0.776,0.7551,0.7746,0.7745,0.7744,0.7743,0.7743,0.6842,0.6907,0.6975,0.706,0.7113,0.7174,0.7241,0.7282,0.7361,0.7456,0.7469,0.7571,0.7641,0.7763,0.781,0.7891,0.7873,0.7903,0.7911,0.7918,0.7923,0.7735,0.7907,0.7907,0.7907,0.7907,0.7906,0,0.7004,0.7047,0.7125,0.7217,0.7284,0.7276,0.7349,0.7406,0.7494,0.7559,0.7633,0.7741,0.783,0.7887,0.7977,0.8031,0.8033,0.8054,0.805,0.806,0.7933,0.7906,0.805,0.805,0.805,0.805,0.805,0.805,0.7097,0.7207,0.7228,0.7364,0.7407,0.7504,0.7547,0.7604,0.7655,0.7775,0.7848,0.7883,0.7945,0.8039,0.8121,0.8136,0.8169,0.819,0.8204,0.8084,0.807,0.8055,0.803,0.8197,0.8197,0.8324,0.8325,0.8326]},{"header":{"parameterUnit":"m.s-1","parameterCategory":1,"la1":30.2991,"la2":30.254,"lo1":-89.0895,"lo2":-89.0444,"dy":0.0017,"dx":0.0017,"nx":28,"ny":28,"refTime":"2025-04-26T09:00:00:Z","depth":0,"parameterNumber":3,"parameterNumberName":"V-component_of_WINDS"},"data":[0,0,0,0,0,0,0,0,0,0,0,0,0,0,0,0,0,0,0,0,0,0,0,0,0,0,0,0,0,0,0,0,0,0,0,0,0,0,0,0,0,0,0,0,0,0,0,0,0,0,0,0,0,0,0,0,0,0,1.9666,1.9666,0,1.9673,1.9673,1.9673,1.9634,1.9633,1.9631,1.963,1.9636,1.9637,1.9638,0,0,0,0,0,0,0,0,0,0,0,0,0,1.9613,1.9615,1.9666,1.9666,1.9666,1.9673,1.9673,1.9673,1.9634,1.9633,1.9631,1.963,1.9635,1.9637,1.9638,0,0,0,0,0,0,0,0,0,0,0,0,0,1.963,1.9615,1.9666,1.9647,1.9646,1.9673,1.9673,1.9673,1.9634,1.9633,1.9631,1.9629,1.9635,1.9636,1.9638,1.9682,0,0,1.9643,1.9644,0,0,0,0,0,0,0,0,1.9629,1.9632,1.965,1.9649,1.9647,1.9651,1.9656,1.9676,1.9635,1.9639,1.963,1.9628,1.9642,1.9643,1.9648,1.9683,1.9683,1.9644,1.9645,1.9645,1.9646,0,0,0,0,0,0,0,1.9628,1.9631,1.9668,1.965,1.9648,1.9637,1.9637,1.966,1.9649,1.9638,1.9635,1.9637,1.9641,1.9646,1.9648,1.9683,1.9644,1.9645,1.9646,1.9647,1.9749,1.975,0,0,0,0,0,0,1.963,1.9631,1.9668,1.9669,1.9634,1.9639,1.964,1.9651,1.9649,1.9647,1.9638,1.9635,1.9644,1.9646,1.9648,1.9695,1.9645,1.9647,1.9648,1.9747,1.9749,1.9751,0,0,0,0,0,0,1.9629,1.9633,1.9668,1.9649,1.9652,1.9642,1.9655,1.9652,1.9658,1.9649,1.9647,1.9646,1.9643,1.9645,1.9673,1.9695,1.9648,1.965,1.9745,1.9748,1.975,1.9794,0,0,0,0,0,0,1.9627,1.9633,1.9652,1.965,1.9653,1.9695,1.9656,1.9653,1.9661,1.9657,1.9656,1.9654,1.9642,1.967,1.9675,1.9697,1.9651,1.9743,1.9746,1.9749,1.979,1.9797,1.9803,0,0,0,0,0,1.9626,1.9664,1.9653,1.9657,1.9676,1.9696,1.9698,1.9684,1.9663,1.968,1.9674,1.9654,1.9692,1.9674,1.9678,1.9701,1.9741,1.9745,1.9749,1.9787,1.9796,1.9803,0,0,0,0,0,0,1.967,1.9664,1.9651,1.969,1.9694,1.969,1.9711,1.9694,1.9704,1.9699,1.968,1.968,1.971,1.9709,1.9688,1.9741,1.9713,1.9718,1.9741,1.9749,1.9755,1.9754,1.9652,0,0,0,0,0,1.9684,1.9702,1.9696,1.9731,1.9733,1.9722,1.973,1.9718,1.9721,1.9722,1.9718,1.9721,1.9732,1.9741,1.9752,1.979,1.9787,1.9808,1.9814,1.982,1.9823,1.9838,1.9846,1.9763,1.9763,1.9763,0,0,1.9714,1.9713,1.9725,1.9739,1.9741,1.9757,1.9723,1.9744,1.9755,1.9725,1.975,1.9747,1.9748,1.978,1.9794,1.978,1.9846,1.9824,1.9829,1.9829,1.9843,1.9851,1.9858,1.9765,1.9765,1.9765,0,0,1.9775,1.9778,1.9805,1.9807,1.9809,1.9801,1.9807,1.9804,1.9801,1.9826,1.9802,1.9815,1.9838,1.9838,1.9841,1.9899,1.9879,1.9903,1.9937,1.9952,1.9958,1.9964,1.998,1.9987,1.9907,1.9907,1.9907,0,1.9812,1.9837,1.9822,1.9842,1.9847,1.982,1.9846,1.9848,1.9854,1.9857,1.9841,1.9865,1.9865,1.9894,1.9907,1.9912,1.9916,1.9902,1.9959,1.9964,1.9969,1.9985,1.9992,1.9909,1.9909,1.9909,1.9909,0,1.9879,1.9897,1.9919,1.9923,1.9931,1.9954,1.994,1.9949,1.9936,1.9928,1.9951,1.9949,1.9957,1.9964,1.9952,1.999,1.998,1.9962,1.9933,1.998,1.9994,2.0,1.9913,1.9912,1.9911,1.9911,0,0,1.997,1.9963,1.9971,1.9971,1.997,1.9982,2.0002,2.001,2.0016,2.0021,2.0035,2.0053,2.0034,2.0038,2.0025,2.0039,2.0079,2.0018,2.0018,2.0026,2.0116,2.0128,2.0135,2.0067,2.0068,2.0069,2.0115,0,2.0027,2.0062,2.0046,2.0082,2.0095,2.0068,2.0085,2.0085,2.0078,2.0087,2.0079,2.009,2.0067,2.0068,2.0081,2.0072,2.0096,2.0069,2.0077,2.0078,2.0075,2.0143,2.0157,2.02,2.0121,2.0122,2.0122,0,2.0099,2.0104,2.014,2.0132,2.0138,2.0153,2.0156,2.0167,2.0164,2.0158,2.016,2.0143,2.0159,2.0132,2.0153,2.0134,2.0136,2.0132,2.0133,2.0131,2.0101,2.014,2.0214,2.0219,2.0132,2.0131,2.013,0,2.0156,2.0172,2.0195,2.0196,2.0189,2.02,2.0197,2.0193,2.0197,2.02,2.0202,2.0207,2.0209,2.0212,2.0195,2.0178,2.0216,2.0189,2.0208,2.0208,2.0216,2.0215,2.0288,2.0223,2.0223,2.0222,2.0222,0,2.0219,2.0242,2.022,2.0234,2.0256,2.0238,2.0261,2.0255,2.0251,2.0261,2.0239,2.0249,2.0228,2.0235,2.0222,2.0238,2.0241,2.0233,2.0229,2.0234,2.0234,2.0233,2.0229,2.0224,2.0224,2.0223,2.0223,0,2.0287,2.0274,2.0296,2.0286,2.0284,2.0301,2.0291,2.0302,2.0293,2.0306,2.0308,2.0292,2.0299,2.0283,2.0288,2.0279,2.0301,2.0294,2.0302,2.0298,2.0317,2.0315,2.039,2.0397,2.033,2.0331,2.0331,0,2.0327,2.0343,2.0334,2.0339,2.0337,2.0347,2.035,2.0331,2.0335,2.0332,2.0342,2.0347,2.0349,2.0361,2.0349,2.0351,2.0341,2.0367,2.0342,2.0344,2.0337,2.0335,2.0335,2.0372,2.0373,2.0374,2.0374,0,2.0398,2.039,2.0396,2.0398,2.0403,2.0404,2.0404,2.0409,2.0389,2.0394,2.04,2.0402,2.0405,2.0409,2.0408,2.0403,2.0384,2.0383,2.0387,2.039,2.0393,2.0388,2.0313,2.0381,2.038,2.0379,2.0379,2.0379,2.045,2.0461,2.0456,2.0462,2.046,2.0459,2.0467,2.0458,2.0463,2.0464,2.0453,2.046,2.0454,2.045,2.0447,2.0451,2.0439,2.0446,2.0447,2.0448,2.045,2.0394,2.0451,2.0451,2.0451,2.0451,2.0451,0,2.0517,2.0511,2.0517,2.0516,2.052,2.0503,2.0501,2.0505,2.0512,2.0508,2.051,2.0515,2.0517,2.0505,2.0505,2.051,2.0501,2.0511,2.0509,2.0507,2.0463,2.0457,2.0517,2.0517,2.0517,2.0517,2.0517,2.0517,2.0552,2.0569,2.0559,2.0573,2.0567,2.0575,2.0574,2.0572,2.0568,2.0575,2.0576,2.0568,2.056,2.0558,2.0559,2.0555,2.0554,2.0566,2.0559,2.0517,2.0511,2.0504,2.0499,2.0567,2.0567,2.0602,2.0603,2.0603]}]]